• în România
  • Lista ţărilor
  • Pe 7 zile
  • Temperatura apei
  • Hartă satelitară
  • Meteo pe hartă
  • Widget-uri
  • user-avatar
    Intrare

    Meteo pe oră la Lesnaya

    Astăzi, 26 Septembrie, Miercuri

    Timp Temperatura Precipitaţii Vânt Presiune Umiditate
    00:00 +3°C° 0 mm 4 m/s 747 mmHg 79%
    01:00 +2°C° 0 mm 3 m/s 748 mmHg 79%
    02:00 +2°C° 0 mm 2 m/s 748 mmHg 82%
    03:00 +2°C° 0 mm 2 m/s 748 mmHg 83%
    04:00 +1°C° 0 mm 3 m/s 748 mmHg 84%
    05:00 0°C° 0 mm 3 m/s 749 mmHg 85%
    06:00 +1°C° 0 mm 3 m/s 749 mmHg 83%
    07:00 +2°C° 0 mm 3 m/s 749 mmHg 81%
    08:00 +3°C° 0 mm 4 m/s 750 mmHg 79%
    09:00 +5°C° 0 mm 4 m/s 749 mmHg 74%
    10:00 +7°C° 0 mm 4 m/s 749 mmHg 68%
    11:00 +10°C° 0 mm 4 m/s 749 mmHg 62%
    12:00 +9°C° 0 mm 5 m/s 748 mmHg 59%
    13:00 +10°C° 0 mm 5 m/s 748 mmHg 57%
    14:00 +12°C° 0 mm 5 m/s 747 mmHg 54%
    15:00 +10°C° 0 mm 5 m/s 746 mmHg 58%
    16:00 +9°C° 0 mm 5 m/s 745 mmHg 62%
    17:00 +8°C° 0 mm 5 m/s 744 mmHg 66%
    18:00 +7°C° 0.8 mm 6 m/s 743 mmHg 73%
    19:00 +6°C° 0.8 mm 7 m/s 742 mmHg 79%
    20:00 +5°C° 0.8 mm 8 m/s 741 mmHg 86%
    21:00 +5°C° 1.4 mm 8 m/s 739 mmHg 86%
    22:00 +5°C° 1.4 mm 8 m/s 738 mmHg 86%
    23:00 +5°C° 1.4 mm 8 m/s 736 mmHg 86%

    Mâine, 27 Septembrie, Joi

    Timp Temperatura Precipitaţii Vânt Presiune Umiditate
    00:00 +5°C° 0.9 mm 8 m/s 735 mmHg 87%
    01:00 +5°C° 0.9 mm 8 m/s 734 mmHg 88%
    02:00 +5°C° 0.9 mm 8 m/s 733 mmHg 88%
    03:00 +6°C° 0.8 mm 7 m/s 733 mmHg 87%
    04:00 +6°C° 0.8 mm 7 m/s 733 mmHg 86%
    05:00 +7°C° 0.8 mm 6 m/s 733 mmHg 85%
    06:00 +7°C° 0.1 mm 6 m/s 733 mmHg 83%
    07:00 +6°C° 0.1 mm 7 m/s 733 mmHg 80%
    08:00 +6°C° 0.1 mm 7 m/s 734 mmHg 77%
    09:00 +6°C° 0.1 mm 7 m/s 734 mmHg 73%
    10:00 +7°C° 0.1 mm 8 m/s 734 mmHg 69%
    11:00 +7°C° 0.1 mm 8 m/s 734 mmHg 64%
    12:00 +9°C° 0.2 mm 8 m/s 735 mmHg 63%
    13:00 +9°C° 0.2 mm 8 m/s 735 mmHg 61%
    14:00 +9°C° 0.2 mm 8 m/s 736 mmHg 59%
    15:00 +8°C° 0 mm 7 m/s 736 mmHg 61%
    16:00 +8°C° 0 mm 6 m/s 736 mmHg 64%
    17:00 +7°C° 0 mm 5 m/s 737 mmHg 66%
    18:00 +6°C° 0 mm 5 m/s 737 mmHg 68%
    19:00 +6°C° 0 mm 5 m/s 737 mmHg 70%
    20:00 +5°C° 0 mm 4 m/s 738 mmHg 72%
    21:00 +5°C° 0 mm 4 m/s 738 mmHg 74%
    22:00 +5°C° 0 mm 4 m/s 738 mmHg 75%
    23:00 +5°C° 0 mm 4 m/s 738 mmHg 77%

    Poimâine, 28 Septembrie, Vineri

    Timp Temperatura Precipitaţii Vânt Presiune Umiditate
    00:00 +5°C° 0 mm 4 m/s 738 mmHg 77%
    01:00 +5°C° 0 mm 4 m/s 737 mmHg 78%
    02:00 +5°C° 0 mm 3 m/s 736 mmHg 79%
    03:00 +6°C° 1.4 mm 4 m/s 735 mmHg 83%
    04:00 +6°C° 1.4 mm 4 m/s 733 mmHg 87%
    05:00 +6°C° 1.4 mm 5 m/s 732 mmHg 91%
    06:00 +8°C° 2.6 mm 5 m/s 731 mmHg 91%
    07:00 +9°C° 2.6 mm 6 m/s 730 mmHg 90%
    08:00 +11°C° 2.6 mm 6 m/s 729 mmHg 90%
    09:00 +11°C° 1.3 mm 6 m/s 729 mmHg 86%
    10:00 +11°C° 1.3 mm 6 m/s 729 mmHg 82%
    11:00 +11°C° 1.3 mm 7 m/s 729 mmHg 78%
    12:00 +9°C° 0.3 mm 7 m/s 731 mmHg 79%
    13:00 +8°C° 0.3 mm 7 m/s 732 mmHg 80%
    14:00 +5°C° 0.3 mm 7 m/s 733 mmHg 81%
    15:00 +5°C° 0.1 mm 6 m/s 734 mmHg 80%
    16:00 +4°C° 0.1 mm 6 m/s 736 mmHg 79%
    17:00 +3°C° 0.1 mm 5 m/s 737 mmHg 78%
    18:00 +4°C° 0 mm 4 m/s 738 mmHg 79%
    19:00 +3°C° 0 mm 4 m/s 739 mmHg 79%
    20:00 +2°C° 0 mm 3 m/s 740 mmHg 80%
    21:00 +2°C° 0 mm 3 m/s 741 mmHg 80%
    22:00 +1°C° 0 mm 3 m/s 741 mmHg 81%
    23:00 +1°C° 0 mm 3 m/s 742 mmHg 81%

    29 Septembrie, Sâmbătă

    Timp Temperatura Precipitaţii Vânt Presiune Umiditate
    00:00 +1°C° 0 mm 3 m/s 742 mmHg 82%
    01:00 +1°C° 0 mm 3 m/s 743 mmHg 82%
    02:00 0°C° 0 mm 3 m/s 743 mmHg 83%
    03:00 0°C° 0 mm 3 m/s 744 mmHg 83%
    04:00 0°C° 0 mm 3 m/s 744 mmHg 83%
    05:00 0°C° 0 mm 3 m/s 745 mmHg 84%
    06:00 +1°C° 0 mm 3 m/s 745 mmHg 78%
    07:00 +1°C° 0 mm 4 m/s 746 mmHg 73%
    08:00 +3°C° 0 mm 4 m/s 746 mmHg 68%
    09:00 +4°C° 0 mm 4 m/s 747 mmHg 64%
    10:00 +5°C° 0 mm 4 m/s 747 mmHg 59%
    11:00 +6°C° 0 mm 5 m/s 748 mmHg 55%
    12:00 +6°C° 0 mm 5 m/s 748 mmHg 54%
    13:00 +6°C° 0 mm 4 m/s 748 mmHg 53%
    14:00 +6°C° 0 mm 4 m/s 749 mmHg 52%
    15:00 +5°C° 0 mm 4 m/s 749 mmHg 56%
    16:00 +4°C° 0 mm 3 m/s 749 mmHg 61%
    17:00 +4°C° 0 mm 2 m/s 749 mmHg 66%
    18:00 +3°C° 0 mm 2 m/s 750 mmHg 70%
    19:00 +2°C° 0 mm 2 m/s 750 mmHg 74%
    20:00 +2°C° 0 mm 1 m/s 751 mmHg 77%
    21:00 +2°C° 0 mm 1 m/s 751 mmHg 79%
    22:00 +2°C° 0 mm 1 m/s 751 mmHg 80%
    23:00 +2°C° 0 mm 1 m/s 752 mmHg 82%

    30 Septembrie, Duminică

    Timp Temperatura Precipitaţii Vânt Presiune Umiditate
    00:00 +1°C° 0 mm 1 m/s 752 mmHg 84%
    01:00 +1°C° 0 mm 1 m/s 752 mmHg 86%
    02:00 -1°C° 0 mm 2 m/s 752 mmHg 88%
    03:00 -1°C° 0 mm 2 m/s 752 mmHg 89%
    04:00 -1°C° 0 mm 2 m/s 752 mmHg 91%
    05:00 -1°C° 0 mm 2 m/s 752 mmHg 93%
    06:00 +1°C° 0 mm 2 m/s 751 mmHg 88%
    07:00 +2°C° 0 mm 2 m/s 751 mmHg 83%
    08:00 +3°C° 0 mm 3 m/s 751 mmHg 78%
    09:00 +4°C° 0 mm 3 m/s 751 mmHg 72%
    10:00 +5°C° 0 mm 4 m/s 751 mmHg 65%
    11:00 +7°C° 0 mm 4 m/s 751 mmHg 59%
    12:00 +7°C° 0 mm 4 m/s 750 mmHg 58%
    13:00 +8°C° 0 mm 5 m/s 750 mmHg 58%
    14:00 +8°C° 0 mm 5 m/s 749 mmHg 58%
    15:00 +8°C° 0 mm 5 m/s 749 mmHg 62%
    16:00 +7°C° 0 mm 4 m/s 749 mmHg 66%
    17:00 +6°C° 0 mm 4 m/s 748 mmHg 71%
    18:00 +6°C° 0 mm 4 m/s 748 mmHg 74%
    19:00 +6°C° 0 mm 4 m/s 748 mmHg 76%
    20:00 +6°C° 0 mm 4 m/s 748 mmHg 79%
    21:00 +6°C° 0 mm 4 m/s 748 mmHg 79%
    22:00 +6°C° 0 mm 4 m/s 748 mmHg 79%
    23:00 +6°C° 0 mm 4 m/s 748 mmHg 79%

    1 Octombrie, Luni

    Timp Temperatura Precipitaţii Vânt Presiune Umiditate
    00:00 +6°C° 0 mm 4 m/s 748 mmHg 80%
    01:00 +6°C° 0 mm 4 m/s 748 mmHg 80%
    02:00 +6°C° 0 mm 4 m/s 748 mmHg 81%
    03:00 +6°C° 0 mm 4 m/s 748 mmHg 82%
    04:00 +6°C° 0 mm 4 m/s 747 mmHg 82%
    05:00 +6°C° 0 mm 4 m/s 747 mmHg 83%
    06:00 +6°C° 0 mm 4 m/s 747 mmHg 82%
    07:00 +6°C° 0 mm 4 m/s 747 mmHg 81%
    08:00 +7°C° 0 mm 4 m/s 748 mmHg 79%
    09:00 +8°C° 0 mm 4 m/s 748 mmHg 74%
    10:00 +10°C° 0 mm 4 m/s 748 mmHg 69%
    11:00 +11°C° 0 mm 4 m/s 748 mmHg 64%
    12:00 +12°C° 0 mm 4 m/s 748 mmHg 62%
    13:00 +12°C° 0 mm 4 m/s 748 mmHg 60%
    14:00 +13°C° 0 mm 4 m/s 747 mmHg 58%
    15:00 +11°C° 0 mm 4 m/s 747 mmHg 64%
    16:00 +10°C° 0 mm 3 m/s 747 mmHg 69%
    17:00 +9°C° 0 mm 2 m/s 747 mmHg 75%
    18:00 +8°C° 0 mm 2 m/s 747 mmHg 77%
    19:00 +7°C° 0 mm 2 m/s 748 mmHg 80%
    20:00 +7°C° 0 mm 2 m/s 748 mmHg 83%
    21:00 +6°C° 0 mm 2 m/s 748 mmHg 83%
    22:00 +6°C° 0 mm 2 m/s 748 mmHg 84%
    23:00 +5°C° 0 mm 2 m/s 748 mmHg 84%
    Arată mai mult